�N����,����,�~����,�C��,���x,�C��,����,���ϕ���,�ő�u�ԕ���,�ő厞����,���˗�,�I�_���x,�n�����x,�ő啗���N��,DTYPE
"16/07/05","00:10",0.0,23.8,89.3,1009.7,351.0,1.0,1.4,327.7,0.00,22.0,25.6,"00:01:52",1
"16/07/05","00:20",0.0,23.8,89.0,1009.7,340.7,0.8,1.8,338.6,0.00,21.9,25.4,"00:19:44",1
"16/07/05","00:30",0.0,23.9,88.8,1010.0,335.1,1.0,1.9,336.8,0.00,22.0,25.5,"00:20:16",1
"16/07/05","00:40",0.0,23.9,88.6,1010.0,317.5,0.6,1.7,350.1,0.00,21.9,25.4,"00:30:08",1
"16/07/05","00:50",0.0,23.9,88.8,1010.0,332.3,0.8,1.4,339.9,0.00,22.0,25.3,"00:44:48",1
"16/07/05","01:00",0.0,23.8,88.6,1009.7,311.2,0.6,1.2,345.5,0.00,21.8,25.3,"00:50:08",1
"16/07/05","01:10",0.0,23.8,88.5,1009.7,308.1,0.6,1.2,336.5,0.00,21.8,25.5,"01:00:56",1
"16/07/05","01:20",0.0,23.8,88.3,1010.0,309.0,0.6,1.2,316.9,0.00,21.8,25.4,"01:13:20",1
"16/07/05","01:30",0.0,23.8,88.4,1010.0,283.3,0.5,0.9,290.7,0.00,21.8,25.2,"01:22:32",1
"16/07/05","01:40",0.0,23.6,88.5,1010.0,287.7,0.5,0.8,277.1,0.00,21.6,25.3,"01:31:44",1
"16/07/05","01:50",0.0,23.4,89.1,1009.7,301.2,0.7,1.2,328.5,0.00,21.5,25.3,"01:48:24",1
"16/07/05","02:00",0.0,23.3,89.7,1010.0,317.6,1.1,1.7,328.9,0.00,21.6,25.2,"01:50:02",1
"16/07/05","02:10",0.0,23.3,90.0,1009.7,327.4,1.1,2.0,342.1,0.00,21.6,25.2,"02:05:12",1
"16/07/05","02:20",0.0,23.3,90.1,1009.7,319.4,1.1,1.7,320.1,0.00,21.6,25.0,"02:14:48",1
"16/07/05","02:30",0.0,23.3,90.0,1009.7,327.0,1.3,3.1,337.9,0.00,21.6,25.0,"02:20:16",1
"16/07/05","02:40",0.0,23.3,89.9,1010.0,309.8,1.0,1.9,347.9,0.00,21.6,25.1,"02:30:08",1
"16/07/05","02:50",0.0,23.2,90.1,1010.0,311.7,1.1,1.8,335.6,0.00,21.5,25.2,"02:44:24",1
"16/07/05","03:00",0.0,23.4,90.3,1009.7,334.2,1.5,2.6,333.4,0.00,21.8,25.1,"02:56:56",1
"16/07/05","03:10",0.0,23.5,90.3,1010.0,324.8,1.2,2.9,347.2,0.00,21.9,25.1,"03:04:48",1
"16/07/05","03:20",0.0,23.4,90.1,1010.0,338.3,1.6,2.8,347.4,0.00,21.7,24.9,"03:17:12",1
"16/07/05","03:30",0.0,23.3,90.4,1010.0,339.3,1.2,2.1,356.5,0.00,21.7,25.0,"03:26:32",1
"16/07/05","03:40",0.0,23.3,90.8,1010.2,338.7,1.3,2.7,336.1,0.00,21.8,24.9,"03:33:44",1
"16/07/05","03:50",0.0,23.3,91.0,1010.0,339.5,1.5,2.4,342.8,0.00,21.8,25.0,"03:43:52",1
"16/07/05","04:00",0.0,23.4,91.1,1010.0,342.9,1.6,3.1,342.9,0.00,21.9,24.9,"03:59:04",1
"16/07/05","04:10",0.0,23.4,90.9,1010.4,336.3,1.3,2.7,338.1,0.00,21.9,24.8,"04:01:12",1
"16/07/05","04:20",0.0,23.3,90.7,1010.2,332.3,1.2,2.7,355.3,0.00,21.7,24.8,"04:17:12",1
"16/07/05","04:30",0.0,23.3,90.7,1010.4,326.9,1.2,3.2,343.1,0.00,21.7,24.6,"04:24:00",1
"16/07/05","04:40",0.0,23.2,90.8,1010.2,310.8,1.0,1.8,329.7,0.00,21.7,24.6,"04:30:16",1
"16/07/05","04:50",0.0,23.0,91.2,1010.7,325.9,1.3,2.6,343.5,0.00,21.5,24.7,"04:43:52",1
"16/07/05","05:00",0.0,23.1,91.3,1010.7,321.0,1.1,2.1,334.1,0.00,21.6,24.7,"04:56:00",1
"16/07/05","05:10",0.0,23.0,91.3,1010.9,322.9,1.0,1.9,343.0,0.00,21.5,24.5,"05:09:04",1
"16/07/05","05:20",0.0,23.1,91.4,1010.9,308.6,0.8,2.2,344.7,0.00,21.7,24.7,"05:12:40",1
"16/07/05","05:30",0.0,23.3,91.3,1010.9,335.5,1.1,1.9,339.0,0.00,21.8,24.7,"05:24:56",1
"16/07/05","05:40",0.0,23.3,90.9,1010.7,337.0,1.1,1.9,346.5,0.00,21.8,24.6,"05:30:08",1
"16/07/05","05:50",0.0,23.5,91.1,1010.4,316.8,0.8,1.9,344.1,0.00,22.0,24.7,"05:40:48",1
"16/07/05","06:00",0.0,23.9,90.7,1010.4,320.9,0.5,0.9,306.9,0.02,22.3,24.5,"05:50:24",1
"16/07/05","06:10",0.0,24.7,89.1,1011.2,326.0,0.5,1.7,353.0,0.03,22.8,24.7,"06:06:56",1
"16/07/05","06:20",0.0,25.5,86.3,1010.9,299.5,0.2,0.9,346.1,0.05,23.1,24.4,"06:14:16",1
"16/07/05","06:30",0.0,26.3,82.9,1010.9,2.6,0.7,1.6,355.0,0.06,23.2,24.7,"06:23:20",1
"16/07/05","06:40",0.0,26.8,80.6,1010.7,32.8,0.6,1.3,23.5,0.08,23.2,24.9,"06:39:28",1
"16/07/05","06:50",0.0,26.7,80.1,1010.9,80.6,0.3,1.1,77.0,0.10,23.0,24.6,"06:43:36",1
"16/07/05","07:00",0.0,27.0,80.0,1010.7,157.1,0.5,0.9,117.1,0.13,23.3,24.6,"06:50:16",1
"16/07/05","07:10",0.0,28.2,76.3,1010.7,115.8,0.3,1.3,201.0,0.19,23.7,24.8,"07:09:52",1
"16/07/05","07:20",0.0,27.7,75.2,1010.4,158.4,0.7,1.3,213.5,0.09,22.9,25.0,"07:19:44",1
"16/07/05","07:30",0.0,27.1,77.9,1010.4,199.4,0.6,1.3,207.7,0.11,23.0,24.8,"07:26:16",1
"16/07/05","07:40",0.0,27.5,75.9,1010.4,205.5,0.2,0.8,31.2,0.14,22.9,25.1,"07:32:32",1
"16/07/05","07:50",0.0,28.2,73.2,1010.7,349.2,0.5,1.4,357.7,0.20,23.0,25.1,"07:43:12",1
"16/07/05","08:00",0.0,29.1,71.2,1011.2,39.1,0.7,1.9,7.4,0.31,23.4,25.2,"07:53:36",1
"16/07/05","08:10",0.0,28.5,70.3,1011.2,44.3,0.7,1.6,29.6,0.21,22.6,25.2,"08:08:48",1
"16/07/05","08:20",0.0,28.4,71.6,1011.2,53.2,0.6,1.3,80.0,0.19,22.8,25.6,"08:16:16",1
"16/07/05","08:30",0.0,29.3,68.1,1011.4,41.3,0.7,1.7,352.3,0.31,22.8,25.6,"08:26:40",1
"16/07/05","08:40",0.0,29.6,70.0,1011.2,112.6,0.3,1.0,77.6,0.25,23.6,25.6,"08:31:12",1
"16/07/05","08:50",0.0,30.2,65.9,1011.9,54.6,0.5,1.4,17.5,0.38,23.2,26.0,"08:42:32",1
"16/07/05","09:00",0.0,30.4,68.5,1011.9,173.8,0.8,1.6,198.3,0.41,24.0,26.0,"08:50:16",1
"16/07/05","09:10",0.0,31.4,64.8,1012.1,53.1,0.6,1.7,26.0,0.44,24.0,26.3,"09:07:04",1
"16/07/05","09:20",0.0,30.7,66.0,1012.3,132.0,0.6,2.0,6.5,0.37,23.7,26.4,"09:12:24",1
"16/07/05","09:30",0.0,31.3,66.8,1012.6,153.5,0.6,1.7,179.0,0.37,24.4,26.6,"09:22:48",1
"16/07/05","09:40",0.0,31.6,62.2,1012.3,69.0,0.6,1.9,24.4,0.40,23.5,26.7,"09:35:28",1
"16/07/05","09:50",0.0,32.4,62.9,1012.3,62.8,0.6,1.7,79.9,0.51,24.5,27.0,"09:42:56",1
"16/07/05","10:00",0.0,32.5,62.3,1012.6,28.7,0.7,2.1,358.1,0.46,24.4,27.2,"09:52:00",1
"16/07/05","10:10",0.0,32.7,59.8,1012.8,39.1,0.7,1.7,342.8,0.49,23.9,27.4,"10:09:44",1
"16/07/05","10:20",0.0,32.8,59.5,1013.0,305.2,0.5,1.6,4.1,0.50,23.9,27.7,"10:16:24",1
"16/07/05","10:30",0.0,33.5,58.4,1013.0,31.6,0.8,2.1,42.7,0.58,24.3,27.9,"10:22:56",1
"16/07/05","10:40",0.0,33.5,57.2,1013.3,100.5,0.7,2.1,29.2,0.50,23.9,28.2,"10:33:52",1
"16/07/05","10:50",0.0,34.1,54.1,1013.0,193.7,1.2,2.4,209.6,0.61,23.5,28.4,"10:43:44",1
"16/07/05","11:00",0.0,34.5,54.4,1013.0,254.0,1.2,3.6,198.8,0.62,24.0,28.7,"10:50:24",1
"16/07/05","11:10",0.0,34.5,52.9,1013.3,323.2,0.6,3.4,343.8,0.53,23.5,28.9,"11:05:28",1
"16/07/05","11:20",0.0,34.2,56.8,1013.3,131.6,1.2,2.7,163.6,0.50,24.4,29.1,"11:18:24",1
"16/07/05","11:30",0.0,34.4,51.9,1013.0,136.0,1.3,3.2,111.9,0.53,23.1,29.4,"11:25:04",1
"16/07/05","11:40",0.0,34.8,51.1,1012.6,162.3,0.8,2.5,122.3,0.47,23.2,29.6,"11:37:36",1
"16/07/05","11:50",0.0,34.3,54.2,1012.6,152.6,1.2,3.2,194.9,0.37,23.8,29.8,"11:47:12",1
"16/07/05","12:00",0.0,34.5,53.9,1012.8,154.5,1.3,3.2,144.4,0.39,23.8,29.9,"11:52:40",1
"16/07/05","12:10",0.0,34.7,52.9,1012.3,185.3,0.6,2.5,223.1,0.41,23.7,30.0,"12:07:44",1
"16/07/05","12:20",0.0,35.2,52.7,1012.6,177.5,1.0,3.4,223.2,0.42,24.1,30.2,"12:10:40",1
"16/07/05","12:30",0.0,35.1,52.1,1012.3,193.4,0.8,3.1,215.4,0.40,23.8,30.3,"12:26:56",1
"16/07/05","12:40",0.0,35.7,50.7,1012.1,275.7,0.2,1.0,20.7,0.44,23.9,30.2,"12:33:28",1
"16/07/05","12:50",0.0,35.8,50.8,1012.3,200.7,1.1,2.7,183.0,0.55,24.1,30.5,"12:48:24",1
"16/07/05","13:00",0.0,35.8,48.3,1012.1,202.7,1.6,3.3,224.5,0.56,23.2,30.6,"12:52:56",1
"16/07/05","13:10",0.0,36.0,49.9,1012.1,213.9,0.6,2.1,225.3,0.50,23.9,30.4,"13:06:00",1
"16/07/05","13:20",0.0,37.0,50.6,1012.1,261.3,0.5,1.4,358.4,0.58,25.1,30.6,"13:10:16",1
"16/07/05","13:30",0.0,35.3,49.4,1011.9,272.1,0.8,1.9,356.2,0.36,23.1,30.6,"13:29:28",1
"16/07/05","13:40",0.0,37.0,49.4,1011.6,215.1,0.7,2.5,218.0,0.53,24.7,30.6,"13:34:32",1
"16/07/05","13:50",0.0,36.8,46.3,1012.1,207.3,1.2,4.5,204.7,0.53,23.4,30.7,"13:49:12",1
"16/07/05","14:00",0.0,35.0,52.8,1011.6,268.0,0.8,3.5,223.8,0.27,24.0,30.7,"13:50:40",1
"16/07/05","14:10",0.0,35.3,52.1,1011.2,324.1,0.7,2.5,197.4,0.25,24.0,30.7,"14:05:52",1
"16/07/05","14:20",0.0,34.5,52.0,1011.4,243.6,0.3,1.4,226.2,0.15,23.3,30.7,"14:10:32",1
"16/07/05","14:30",0.0,34.4,54.0,1010.7,225.5,0.3,2.8,218.0,0.16,23.8,30.7,"14:27:28",1
"16/07/05","14:40",0.0,35.2,51.7,1010.7,126.5,0.3,1.6,215.1,0.26,23.8,30.7,"14:39:04",1
"16/07/05","14:50",0.0,35.3,52.4,1010.7,241.7,0.8,2.5,216.7,0.30,24.1,30.8,"14:44:32",1
"16/07/05","15:00",0.0,35.2,52.5,1010.9,252.8,0.3,1.2,43.7,0.26,24.1,30.7,"14:52:16",1
"16/07/05","15:10",0.0,36.4,48.8,1010.7,225.6,0.6,2.7,207.7,0.38,23.9,30.8,"15:09:36",1
"16/07/05","15:20",0.0,36.6,47.9,1010.9,215.2,1.6,4.9,224.2,0.49,23.8,30.8,"15:18:16",1
"16/07/05","15:30",0.0,36.4,49.7,1010.9,226.1,0.8,3.1,217.0,0.35,24.2,30.9,"15:25:04",1
"16/07/05","15:40",0.0,35.4,53.3,1010.7,330.2,0.5,3.1,3.1,0.21,24.5,30.9,"15:34:08",1
"16/07/05","15:50",0.0,34.8,52.4,1010.4,271.4,0.6,2.0,356.2,0.18,23.7,31.0,"15:42:32",1
"16/07/05","16:00",0.0,34.2,55.4,1010.2,288.0,0.3,1.4,17.4,0.10,24.0,31.1,"15:50:56",1
"16/07/05","16:10",0.0,34.3,54.3,1009.7,256.9,0.3,1.3,356.1,0.08,23.8,30.9,"16:02:08",1
"16/07/05","16:20",0.0,34.2,55.7,1009.7,228.6,0.2,1.4,199.2,0.08,24.1,31.0,"16:16:56",1
"16/07/05","16:30",0.0,34.0,56.6,1009.5,266.2,0.2,1.3,26.9,0.08,24.2,30.7,"16:29:36",1
"16/07/05","16:40",0.0,33.9,57.5,1009.3,313.8,0.2,1.1,10.4,0.08,24.4,30.7,"16:31:20",1
"16/07/05","16:50",0.0,33.7,59.3,1008.8,247.8,0.2,0.9,199.7,0.07,24.7,30.6,"16:47:12",1
"16/07/05","17:00",0.0,33.5,60.4,1009.0,347.0,0.3,1.2,8.7,0.06,24.8,30.7,"16:52:00",1
"16/07/05","17:10",0.0,33.2,61.0,1009.0,284.0,0.3,1.6,216.5,0.05,24.7,30.7,"17:08:48",1
"16/07/05","17:20",0.0,33.0,60.5,1008.6,158.5,0.3,1.0,35.2,0.05,24.4,30.5,"17:13:28",1
"16/07/05","17:30",0.0,32.9,61.5,1009.0,21.4,0.3,1.2,4.3,0.04,24.6,30.3,"17:27:36",1
"16/07/05","17:40",0.0,32.8,60.6,1009.0,141.3,0.7,2.1,129.0,0.04,24.2,30.3,"17:39:52",1
"16/07/05","17:50",0.0,32.2,59.9,1009.0,135.9,1.2,2.6,142.4,0.04,23.5,30.2,"17:41:36",1
"16/07/05","18:00",0.0,32.0,59.6,1009.0,94.9,0.8,2.5,129.5,0.03,23.2,29.8,"17:51:20",1
"16/07/05","18:10",0.0,31.8,60.1,1009.0,43.6,0.8,2.2,83.5,0.03,23.1,29.9,"18:00:08",1
"16/07/05","18:20",0.0,31.6,60.5,1009.3,33.5,0.6,1.8,74.3,0.02,23.1,30.0,"18:11:12",1
"16/07/05","18:30",0.0,31.2,63.0,1009.0,259.2,0.3,1.3,180.2,0.01,23.4,29.7,"18:21:12",1
"16/07/05","18:40",0.0,30.9,63.3,1009.3,259.6,0.5,1.3,179.4,0.00,23.2,29.7,"18:37:20",1
"16/07/05","18:50",0.0,30.7,63.6,1009.3,105.8,0.6,1.4,7.9,0.00,23.0,29.6,"18:40:02",1
"16/07/05","19:00",0.0,30.7,65.0,1009.0,85.8,0.7,1.8,126.5,0.00,23.4,29.3,"18:52:32",1
"16/07/05","19:10",0.0,30.1,69.3,1008.8,310.3,0.3,1.4,359.8,0.00,23.9,29.2,"19:01:36",1
"16/07/05","19:20",0.0,29.5,71.8,1009.0,343.5,0.3,1.0,344.9,0.00,23.9,29.1,"19:18:32",1
"16/07/05","19:30",0.0,29.2,71.0,1008.6,314.9,0.2,1.1,196.7,0.00,23.4,29.1,"19:27:52",1
"16/07/05","19:40",0.0,29.2,71.7,1008.6,7.5,0.2,0.9,349.5,0.00,23.6,28.9,"19:36:40",1
"16/07/05","19:50",0.0,28.9,74.0,1009.0,9.7,0.3,0.9,350.8,0.00,23.8,29.0,"19:44:24",1
"16/07/05","20:00",0.0,28.4,74.3,1009.5,307.2,0.1,0.9,312.1,0.00,23.4,28.8,"19:52:48",1
"16/07/05","20:10",0.0,28.2,71.3,1009.3,341.7,0.3,1.0,358.9,0.00,22.6,28.5,"20:02:08",1
"16/07/05","20:20",0.0,28.3,73.1,1009.3,15.3,0.3,1.0,323.0,0.00,23.1,28.5,"20:10:02",1
"16/07/05","20:30",0.0,27.9,72.3,1009.5,320.1,0.8,1.4,345.0,0.00,22.5,28.5,"20:22:32",1
"16/07/05","20:40",0.0,27.6,72.0,1009.7,338.0,0.6,1.4,3.4,0.00,22.1,28.3,"20:36:32",1
"16/07/05","20:50",0.0,27.6,71.6,1010.2,343.9,0.8,1.3,9.3,0.00,22.0,28.3,"20:41:52",1
"16/07/05","21:00",0.0,27.5,72.9,1010.0,307.0,0.6,1.2,328.3,0.00,22.2,28.1,"20:50:32",1
"16/07/05","21:10",0.0,27.5,72.7,1010.2,332.1,0.6,1.1,353.8,0.00,22.2,27.9,"21:03:20",1
"16/07/05","21:20",0.0,27.5,73.6,1010.7,289.5,0.2,0.9,0.9,0.00,22.4,27.9,"21:11:52",1
"16/07/05","21:30",0.0,27.6,73.2,1010.2,358.1,0.6,1.1,345.7,0.00,22.4,27.9,"21:20:02",1
"16/07/05","21:40",0.0,27.6,73.6,1010.2,294.4,0.6,1.3,349.8,0.00,22.5,27.9,"21:30:16",1
"16/07/05","21:50",0.0,27.4,73.9,1010.2,258.4,0.3,1.0,237.2,0.00,22.4,27.9,"21:40:48",1
"16/07/05","22:00",0.0,27.5,75.6,1010.2,313.3,0.3,0.8,250.0,0.00,22.8,27.7,"21:50:08",1
"16/07/05","22:10",0.0,27.9,76.4,1010.7,207.2,1.7,4.0,230.6,0.00,23.4,27.8,"22:04:16",1
"16/07/05","22:20",0.0,27.9,76.3,1010.4,170.1,1.7,5.4,197.3,0.00,23.4,27.7,"22:12:08",1
"16/07/05","22:30",0.0,27.6,77.2,1010.7,127.6,0.7,1.8,85.1,0.00,23.3,27.5,"22:20:48",1
"16/07/05","22:40",0.0,27.3,78.2,1010.4,128.4,0.6,1.6,102.5,0.00,23.2,27.6,"22:30:48",1
"16/07/05","22:50",0.0,27.2,78.5,1010.7,86.0,0.6,1.8,40.2,0.00,23.2,27.6,"22:41:44",1
"16/07/05","23:00",0.0,27.2,78.7,1010.4,117.9,0.6,2.2,73.7,0.00,23.2,27.5,"22:54:56",1
"16/07/05","23:10",0.0,27.0,78.7,1010.7,89.7,0.7,2.1,36.9,0.00,23.0,27.3,"23:07:16",1
"16/07/05","23:20",0.0,27.0,78.7,1010.7,91.4,0.8,2.0,74.6,0.00,23.0,27.3,"23:10:48",1
"16/07/05","23:30",0.0,26.8,78.8,1010.9,63.8,0.7,1.9,59.7,0.00,22.8,27.3,"23:21:28",1
"16/07/05","23:40",0.0,26.7,79.2,1010.7,71.2,0.7,2.1,26.9,0.00,22.8,27.2,"23:32:48",1
"16/07/05","23:50",0.0,26.7,79.1,1010.7,42.9,1.0,2.0,55.3,0.00,22.8,27.1,"23:41:20",1
"16/07/05","24:00",0.0,26.6,79.1,1010.9,32.3,0.7,2.1,114.5,0.00,22.7,27.1,"23:53:52",1
